Home   Weather   Gainesville   Past weeks

Flag for USA Past Weather in Gainesville, Florida, USA — Yesterday and Last 2 Weeks

Now
44 °F

Clear.


Feels Like: 41 °F
Forecast: 36 / 65 °F
Wind: 6 mph from North

Location: Gainesville Regional Airport

Current Time: Dec 10, 2016 at 12:03:09 am

Latest Report: Dec 9, 2016 at 10:53 pm


Visibility: 10 mi

Pressure: 30.40 "Hg

Humidity: 65%

Dew Point: 33 °F

Location of GainesvilleLocation

Past Weather in Gainesville — Graph

°F

Gainesville Temperature Yesterday

Maximum temperature yesterday: 60 °F (at 1:53 pm)
Minimum temperature yesterday: 44 °F (at 8:53 pm)
Average temperature yesterday: 51 °F

High & Low Weather Summary for the Past Weeks

 TemperatureHumidityPressure
High84 °F (Dec 5, 2:53 pm)100% (Nov 30, 5:53 am)30.41 "Hg (Nov 30, 5:53 am)
Low44 °F (Dec 2, 6:53 am)24% (Dec 9, 2:53 pm)29.79 "Hg (Dec 6, 1:53 pm)
Average64 °F72%30.07 "Hg
* Reported Nov 24 10:53 pm — Dec 9 10:53 pm, Gainesville, Weather by CustomWeather, © 2016

Note: Actual official high and low records may vary slightly from our data, if they occured in-between our weather recording intervals... More about our weather records

Advertising

Gainesville Weather History for the Previous 24 Hours

Scroll right to see more
 ConditionsComfort  
Time TempWeatherWind HumidityBarometerVisibility
10:53 pm
Fri, Dec 9
44 °FClear.6 mph65%30.40 "Hg10 mi
9:53 pm44 °FClear.6 mph65%30.41 "Hg10 mi
8:53 pm44 °FClear.6 mph63%30.40 "Hg10 mi
7:53 pm47 °FClear.No wind52%30.39 "Hg10 mi
6:53 pm45 °FClear.3 mph58%30.38 "Hg10 mi
5:53 pm50 °FClear.5 mph43%30.36 "Hg10 mi
4:53 pm56 °FSunny.8 mph29%30.33 "Hg10 mi
3:53 pm59 °FSunny.8 mph27%30.32 "Hg10 mi
2:53 pm60 °FSunny.7 mph24%30.31 "Hg10 mi
1:53 pm60 °FSunny.8 mph26%30.31 "Hg10 mi
12:53 pm58 °FSunny.10 mph30%30.33 "Hg10 mi
11:53 am55 °FSunny.12 mph34%30.36 "Hg10 mi
10:53 am54 °FSunny.10 mph34%30.39 "Hg10 mi
9:53 am49 °FSunny.16 mph39%30.40 "Hg10 mi
8:53 am45 °FSunny.12 mph44%30.38 "Hg10 mi
7:53 am45 °FSunny.12 mph45%30.37 "Hg10 mi
6:53 am46 °FClear.10 mph44%30.33 "Hg10 mi
5:53 am47 °FPassing clouds.13 mph42%30.31 "Hg10 mi
4:53 am48 °FClear.10 mph44%30.30 "Hg10 mi
3:53 am49 °FClear.10 mph41%30.28 "Hg10 mi
2:53 am50 °FClear.13 mph38%30.26 "Hg10 mi
1:53 am53 °FClear.8 mph41%30.25 "Hg10 mi
12:53 am54 °FClear.12 mph41%30.26 "Hg10 mi
Weather by CustomWeather, © 2016

See weather overviewHow to use our weather pages